EW1647 Weather Reports


Display with metric or nautical units.
time (UTC)temp
F
wind
direction
speed
MPH
gust
MPH
rain 1hr
in
rain 24hr
in
rain mn
in
humidity
%
barometer
mb
20260505234611 63 280 6.0 10.0 0.00 0.00 0.00 76 1016.1
20260505233049 63 330 5.0 11.0 0.00 0.00 0.00 74 1016.3
20260505231546 64 290 4.0 11.0 0.00 0.00 0.00 73 1016.3
20260505230045 64 273 5.0 10.0 0.00 0.00 0.00 77 1016.4
20260505224542 62 306 4.0 9.0 0.00 0.00 0.00 80 1016.5
20260505223038 62 304 5.0 9.0 0.00 0.00 0.00 79 1016.7
20260505221536 62 271 4.0 8.0 0.00 0.00 0.00 80 1016.8
20260505220044 61 289 3.0 8.0 0.00 0.00 0.00 81 1016.9
20260505214537 60 296 3.0 8.0 0.00 0.00 0.00 81 1016.9
20260505213031 60 288 5.0 10.0 0.00 0.00 0.00 81 1017.0
20260505211529 60 310 3.0 8.0 0.00 0.00 0.00 81 1017.0
20260505210026 60 285 4.0 6.0 0.00 0.00 0.00 82 1017.1
20260505204524 59 291 4.0 8.0 0.00 0.00 0.00 83 1017.1
20260505203022 59 267 3.0 8.0 0.00 0.00 0.00 84 1017.2
20260505201524 58 284 3.0 8.0 0.00 0.00 0.00 84 1017.1
20260505200019 58 277 2.0 6.0 0.00 0.00 0.00 85 1017.1
20260505194530 58 286 3.0 8.0 0.00 0.00 0.00 85 1017.2
20260505193032 58 248 3.0 8.0 0.00 0.00 0.00 86 1017.1
20260505191517 57 284 4.0 8.0 0.00 0.00 0.00 85 1017.1
20260505190017 57 286 4.0 8.0 0.00 0.00 0.00 86 1017.1
20260505184512 57 279 2.0 9.0 0.00 0.00 0.00 85 1017.0
20260505183013 57 273 3.0 8.0 0.00 0.00 0.00 86 1017.0
20260505181509 57 288 3.0 5.0 0.00 0.00 0.00 87 1017.0
20260505180007 56 282 3.0 7.0 0.00 0.00 0.00 87 1017.0
20260505174508 56 267 2.0 7.0 0.00 0.00 0.00 87 1017.0
20260505173004 56 274 2.0 4.0 0.00 0.00 0.00 87 1016.9
20260505171503 56 267 2.0 6.0 0.00 0.00 0.00 88 1016.8
20260505170001 56 267 2.0 6.0 0.00 0.00 0.00 89 1016.7
20260505164502 55 263 1.0 4.0 0.00 0.00 0.00 88 1016.6
20260505163059 55 261 1.0 4.0 0.00 0.00 0.00 88 1016.6
20260505161604 55 242 1.0 2.0 0.00 0.00 0.00 88 1016.6
20260505153059 55 242 1.0 4.0 0.00 0.00 0.00 87 1016.4
20260505151554 55 241 1.0 4.0 0.00 0.00 0.00 87 1016.3
20260505124541 55 223 0.0 3.0 0.00 0.00 0.00 88 1014.9
20260505123057 55 221 0.0 3.0 0.00 0.00 0.00 88 1014.8
20260505121537 55 221 1.0 3.0 0.00 0.00 0.00 88 1014.8
20260505120035 54 221 1.0 5.0 0.00 0.00 0.00 88 1014.7
20260505114545 54 234 3.0 8.0 0.00 0.00 0.00 88 1014.7
20260505113038 54 223 0.0 4.0 0.00 0.00 0.00 88 1014.6
20260505111550 54 221 1.0 5.0 0.00 0.00 0.00 88 1014.6
20260505101533 54 194 1.0 6.0 0.00 0.00 0.00 89 1014.3
20260505100033 54 200 1.0 5.0 0.00 0.00 0.00 89 1014.2
20260505094527 54 193 2.0 4.0 0.00 0.00 0.00 89 1014.1
20260505093029 54 178 5.0 9.0 0.00 0.00 0.00 89 1014.0
20260505091531 54 211 4.0 11.0 0.00 0.00 0.00 89 1013.9
20260505090025 54 193 3.0 6.0 0.00 0.00 0.00 89 1013.9
20260505084521 54 238 3.0 7.0 0.00 0.00 0.00 89 1013.7
20260505083021 54 190 2.0 6.0 0.00 0.00 0.00 89 1013.7
20260505081522 54 190 2.0 6.0 0.00 0.00 0.00 89 1013.7
20260505080029 54 189 3.0 6.0 0.00 0.00 0.00 88 1013.6
20260505074514 54 198 3.0 9.0 0.00 0.00 0.00 89 1013.5
20260505073015 54 236 2.0 9.0 0.00 0.00 0.00 88 1013.3
20260505071508 54 221 3.0 10.0 0.00 0.00 0.00 88 1013.1
20260505070005 55 231 4.0 8.0 0.00 0.00 0.00 87 1013.0
20260505064504 55 246 4.0 8.0 0.00 0.00 0.00 87 1012.9
20260505063002 55 200 3.0 5.0 0.00 0.00 0.00 86 1012.8
20260505061600 55 188 2.0 6.0 0.00 0.00 0.00 86 1012.6
20260505054602 56 240 0.0 5.0 0.00 0.00 0.00 84 1012.3
20260505053109 57 254 0.0 4.0 0.00 0.00 0.00 83 1012.3
20260505051553 57 254 3.0 7.0 0.00 0.00 0.00 82 1012.2
20260505041610 60 205 6.0 10.0 0.00 0.00 0.00 76 1011.4
20260505040050 61 246 5.0 15.0 0.00 0.00 0.00 74 1011.1
20260505034550 63 259 7.0 14.0 0.00 0.00 0.00 72 1010.9
20260505033050 64 275 1.0 7.0 0.00 0.00 0.00 70 1010.7
20260505031555 65 254 3.0 11.0 0.00 0.00 0.00 68 1010.5
20260505030049 66 263 8.0 14.0 0.00 0.00 0.00 66 1010.4
20260505024549 67 250 5.0 14.0 0.00 0.00 0.00 64 1010.2
20260505023048 69 298 3.0 8.0 0.00 0.00 0.00 63 1010.1
20260505021548 70 285 4.0 11.0 0.00 0.00 0.00 61 1010.1
20260505020045 71 257 5.0 11.0 0.00 0.00 0.00 59 1009.9
20260505014546 72 296 8.0 13.0 0.00 0.00 0.00 56 1010.0
20260505013045 73 227 7.0 16.0 0.00 0.00 0.00 54 1009.9
20260505011544 76 259 6.0 12.0 0.00 0.00 0.00 52 1009.9
20260505010045 77 286 7.0 11.0 0.00 0.00 0.00 51 1010.0
20260505004544 77 219 4.0 9.0 0.00 0.00 0.00 52 1010.0
20260505003042 77 260 5.0 10.0 0.00 0.00 0.00 51 1010.0
20260505001549 77 258 3.0 9.0 0.00 0.00 0.00 52 1010.0
20260505000047 77 318 4.0 9.0 0.00 0.00 0.00 54 1009.9